Weather History for KLXN - March, 2014

Change the Weather History Date:

Friday, March 21, 2014

  Actual Average Record
Temperature  
Mean Temperature 42 °F -  
Max Temperature 54 °F 51 °F 73 °F (2015)
Min Temperature 30 °F 27 °F 10 °F (2002)
Degree Days  
Heating Degree Days 23    
Moisture  
Dew Point 24 °F    
Average Humidity 52    
Maximum Humidity 80    
Minimum Humidity 29    
Precipitation  
Precipitation 0.00 in - - ()
Sea Level Pressure  
Sea Level Pressure 30.01 in    
Wind  
Wind Speed 13 mph (North)    
Max Wind Speed 28 mph    
Max Gust Speed 38 mph    
Visibility 10 miles    
Events      
Averages and records for this station are not official NWS values.
T = Trace of Precipitation, MM = Missing Value Source: NWS Daily Summary

Daily Weather History Graph

Daily Weather History Graph

Search for Another Location

Airport or City:

Trip Planner

Search our weather history database for the weather conditions in past years. The results will help you decide how hot, cold, wet, or windy it might be!

Date:

Astronomy

Mar. 21, 2014 Rise Set
Actual Time 7:40 AM CDT 7:52 PM CDT
Civil Twilight 7:13 AM CDT 8:19 PM CDT
Nautical Twilight 6:41 AM CDT 8:51 PM CDT
Astronomical Twilight 6:08 AM CDT 9:24 PM CDT
Moon 12:14 AM CDT (3/21) 10:32 AM CDT (3/21)
Length of Visible Light 13h 06m
Length of Day
12h 11m
Waning Gibbous, 75% of the Moon is Illuminated
Mar 21
Waning Gibbous
Mar 23
Last Quarter
Mar 30
New
Apr 7
First Quarter
Apr 15
Full

Hourly Weather History & Observations

Time (CDT) Temp. Windchill Dew Point Humidity Pressure Visibility Wind Dir Wind Speed Gust Speed Precip Events Conditions
12:15 AM 37.2 °F 34.7 °F 18.0 °F 46% 29.77 in 10.0 mi ENE 3.5 mph - N/A   Clear
12:35 AM 44.4 °F 42.9 °F 16.3 °F 32% 29.76 in 10.0 mi SE 3.5 mph - N/A   Clear
12:55 AM 36.1 °F 30.6 °F 18.7 °F 49% 29.77 in 10.0 mi ENE 6.9 mph - N/A   Clear
1:15 AM 41.5 °F 39.6 °F 16.2 °F 36% 29.77 in 10.0 mi SSE 3.5 mph - N/A   Clear
1:35 AM 43.5 °F 39.4 °F 16.5 °F 34% 29.77 in 10.0 mi North 6.9 mph - N/A   Clear
1:55 AM 46.8 °F - 17.1 °F 31% 29.78 in 10.0 mi NW 10.4 mph - N/A   Clear
2:15 AM 43.3 °F 37.7 °F 19.0 °F 38% 29.79 in 10.0 mi WNW 10.4 mph 23.0 mph N/A   Clear
2:35 AM 43.0 °F 33.8 °F 20.7 °F 41% 29.83 in 10.0 mi NNW 23.0 mph - N/A   Clear
2:55 AM 42.8 °F 40.1 °F 21.2 °F 42% 29.82 in 10.0 mi NNW 4.6 mph 11.5 mph N/A   Clear
3:15 AM 39.9 °F 30.2 °F 24.6 °F 54% 29.84 in 10.0 mi North 20.7 mph 24.2 mph N/A   Clear
3:35 AM 41.0 °F 31.6 °F 29.1 °F 63% 29.83 in 10.0 mi North 20.7 mph 25.3 mph N/A   Clear
3:55 AM 40.5 °F 31.5 °F 28.9 °F 64% 29.83 in 10.0 mi North 18.4 mph 25.3 mph N/A   Clear
4:15 AM 39.9 °F 31.4 °F 28.4 °F 63% 29.84 in 10.0 mi North 16.1 mph 23.0 mph N/A   Clear
4:35 AM 39.2 °F 30.5 °F 27.9 °F 64% 29.85 in 10.0 mi North 16.1 mph - N/A   Clear
4:55 AM 38.5 °F 29.9 °F 27.5 °F 65% 29.85 in 10.0 mi North 15.0 mph - N/A   Clear
5:15 AM 37.6 °F 30.0 °F 27.5 °F 67% 29.86 in 10.0 mi North 11.5 mph - N/A   Clear
5:35 AM 36.7 °F 30.5 °F 27.3 °F 69% 29.88 in 10.0 mi North 8.1 mph - N/A   Clear
5:55 AM 35.2 °F 28.8 °F 27.1 °F 72% 29.88 in 10.0 mi North 8.1 mph - N/A   Clear
6:15 AM 34.2 °F 31.2 °F 27.0 °F 75% 29.88 in 10.0 mi NNW 3.5 mph - N/A   Clear
6:35 AM 33.3 °F 27.1 °F 26.8 °F 77% 29.89 in 10.0 mi NNW 6.9 mph - N/A   Clear
6:55 AM 31.6 °F 24.4 °F 25.9 °F 79% 29.90 in 10.0 mi NNW 8.1 mph - N/A   Clear
7:15 AM 30.6 °F 23.1 °F 24.8 °F 79% 29.90 in 10.0 mi NNW 8.1 mph - N/A   Clear
7:35 AM 30.2 °F 21.9 °F 24.8 °F 80% 29.91 in 10.0 mi NW 9.2 mph - N/A   Clear
7:55 AM 32.0 °F 23.6 °F 25.5 °F 77% 29.92 in 10.0 mi NNW 10.4 mph - N/A   Clear
8:15 AM 33.4 °F 25.9 °F 25.7 °F 73% 29.93 in 10.0 mi WNW 9.2 mph - N/A   Clear
8:35 AM 34.5 °F 27.9 °F 26.2 °F 72% 29.94 in 10.0 mi WNW 8.1 mph - N/A   Clear
8:50 AM 36.7 °F 29.9 °F 26.4 °F 66% 29.95 in 10.0 mi NNW 9.2 mph - N/A   Clear
9:15 AM 40.6 °F 32.7 °F 26.2 °F 57% 29.96 in 10.0 mi North 15.0 mph - N/A   Clear
9:35 AM 42.1 °F 32.8 °F 25.5 °F 52% 29.97 in 10.0 mi North 21.9 mph 25.3 mph N/A   Clear
9:55 AM 43.3 °F 35.0 °F 25.3 °F 49% 29.97 in 10.0 mi North 19.6 mph 26.5 mph N/A   Clear
10:15 AM 44.1 °F 35.2 °F 24.6 °F 46% 29.99 in 10.0 mi North 23.0 mph 28.8 mph N/A   Clear
10:35 AM 45.3 °F 38.1 °F 24.8 °F 45% 29.99 in 10.0 mi North 17.3 mph 25.3 mph N/A   Clear
10:55 AM 46.4 °F 38.3 °F 24.1 °F 42% 30.00 in 10.0 mi NNW 23.0 mph 26.5 mph N/A   Clear
11:15 AM 47.5 °F - 24.4 °F 41% 30.01 in 10.0 mi North 19.6 mph - N/A   Clear
11:35 AM 48.2 °F - 24.4 °F 39% 30.01 in 10.0 mi North 18.4 mph - N/A   Clear
11:55 AM 49.3 °F - 24.3 °F 38% 30.02 in 10.0 mi NNW 19.6 mph 24.2 mph N/A   Clear
12:15 PM 49.6 °F - 24.1 °F 37% 30.02 in 10.0 mi NNW 20.7 mph 25.3 mph N/A   Clear
12:35 PM 50.7 °F - 23.7 °F 35% 30.03 in 10.0 mi NNW 21.9 mph 28.8 mph N/A   Clear
12:55 PM 50.9 °F - 23.5 °F 34% 30.04 in 10.0 mi NNW 20.7 mph 32.2 mph N/A   Clear
1:15 PM 52.0 °F - 23.5 °F 33% 30.04 in 10.0 mi NNW 26.5 mph 31.1 mph N/A   Clear
1:35 PM 52.3 °F - 23.2 °F 32% 30.04 in 10.0 mi NNW 21.9 mph 32.2 mph N/A   Clear
1:55 PM 53.2 °F - 22.6 °F 30% 30.04 in 10.0 mi NNW 23.0 mph 32.2 mph N/A   Clear
2:15 PM 54.0 °F - 23.0 °F 30% 30.04 in 10.0 mi NNW 17.3 mph 29.9 mph N/A   Clear
2:35 PM 53.6 °F - 21.6 °F 29% 30.04 in 10.0 mi North 23.0 mph 28.8 mph N/A   Clear
2:55 PM 53.6 °F - 21.7 °F 29% 30.04 in 10.0 mi NNW 27.6 mph 38.0 mph N/A   Clear
3:15 PM 53.1 °F - 21.7 °F 29% 30.05 in 10.0 mi NNW 27.6 mph 33.4 mph N/A   Clear
3:35 PM 53.4 °F - 22.6 °F 30% 30.05 in 10.0 mi NNW 20.7 mph 32.2 mph N/A   Scattered Clouds
3:55 PM 53.6 °F - 21.7 °F 29% 30.05 in 10.0 mi NNW 27.6 mph 32.2 mph N/A   Scattered Clouds
4:10 PM 52.9 °F - 21.9 °F 30% 30.06 in 10.0 mi North 23.0 mph 32.2 mph N/A   Scattered Clouds
4:35 PM 52.3 °F - 23.0 °F 32% 30.06 in 10.0 mi North 27.6 mph 35.7 mph N/A   Scattered Clouds
4:55 PM 51.3 °F - 21.4 °F 31% 30.07 in 10.0 mi NNW 26.5 mph 32.2 mph N/A   Clear
5:15 PM 50.9 °F - 23.7 °F 35% 30.08 in 10.0 mi North 25.3 mph 31.1 mph N/A   Scattered Clouds
5:35 PM 47.8 °F - 26.2 °F 43% 30.09 in 10.0 mi North 20.7 mph 31.1 mph N/A   Scattered Clouds
5:55 PM 46.8 °F - 26.2 °F 45% 30.11 in 10.0 mi North 23.0 mph - N/A   Scattered Clouds
6:15 PM 45.3 °F 36.7 °F 27.1 °F 49% 30.12 in 10.0 mi North 24.2 mph 31.1 mph N/A   Clear
6:30 PM 44.2 °F 35.4 °F 26.4 °F 50% 30.13 in 10.0 mi North 23.0 mph 29.9 mph N/A   Clear
6:55 PM 42.1 °F 32.1 °F 25.3 °F 52% 30.13 in 10.0 mi North 25.3 mph 29.9 mph N/A   Clear
7:15 PM 40.3 °F 29.9 °F 24.8 °F 54% 30.15 in 10.0 mi North 24.2 mph 29.9 mph N/A   Clear
7:35 PM 38.7 °F 28.0 °F 25.3 °F 59% 30.15 in 10.0 mi North 23.0 mph 26.5 mph N/A   Clear
7:55 PM 37.6 °F 28.4 °F 25.5 °F 62% 30.17 in 10.0 mi NNE 16.1 mph 23.0 mph N/A   Scattered Clouds
8:15 PM 36.5 °F 27.0 °F 25.5 °F 64% 30.18 in 10.0 mi North 16.1 mph 23.0 mph N/A   Scattered Clouds
8:35 PM 36.1 °F 26.2 °F 25.3 °F 65% 30.18 in 10.0 mi North 17.3 mph 21.9 mph N/A   Scattered Clouds
8:55 PM 35.6 °F 25.9 °F 24.8 °F 65% 30.19 in 10.0 mi NNE 16.1 mph - N/A   Scattered Clouds
9:15 PM 35.8 °F 25.1 °F 25.5 °F 66% 30.20 in 10.0 mi North 19.6 mph 29.9 mph N/A   Mostly Cloudy
9:35 PM 36.1 °F 26.9 °F 26.2 °F 67% 30.21 in 10.0 mi NNE 15.0 mph 19.6 mph N/A   Overcast
9:55 PM 35.2 °F 26.2 °F 25.7 °F 68% 30.22 in 10.0 mi North 13.8 mph 20.7 mph N/A   Overcast
10:15 PM 34.9 °F 25.7 °F 24.8 °F 67% 30.24 in 10.0 mi NNE 13.8 mph - N/A   Overcast
10:35 PM 35.1 °F 25.2 °F 24.6 °F 66% 30.25 in 10.0 mi NNE 16.1 mph - N/A   Overcast
10:55 PM 35.1 °F 26.4 °F 23.9 °F 64% 30.26 in 10.0 mi NNE 12.7 mph 18.4 mph N/A   Overcast
11:15 PM 34.9 °F 25.7 °F 23.7 °F 64% 30.26 in 10.0 mi NNE 13.8 mph - N/A   Overcast
11:35 PM 34.7 °F 27.5 °F 23.4 °F 63% 30.27 in 10.0 mi North 9.2 mph - N/A   Overcast
11:55 PM 34.3 °F 26.5 °F 23.5 °F 65% 30.28 in 10.0 mi North 10.4 mph - N/A   Overcast